When you browse on this site, cookies collect data to enhance your experience and personalize the content and advertising you see.
Visit our Privacy Policy to learn more. By continuing to use the site, you agree to this use of cookies and data.
  • In Romania
  • List of Countries
  • For 7 days
  • Water Temperature
  • Satellite Maps
  • Weather Map
  • Weather Widgets
  • user-avatar
    Login

    Hourly Weather Lezhe

    Today, 17 January, Thursday

    Time Temperature Precipitation Wind Pressure Humidity
    00:00 -1°C° 0 mm 2 mps 741 mmHg 80%
    01:00 -1°C° 0 mm 2 mps 741 mmHg 81%
    02:00 -1°C° 0 mm 2 mps 741 mmHg 81%
    03:00 -1°C° 0 mm 2 mps 741 mmHg 81%
    04:00 -1°C° 0 mm 2 mps 741 mmHg 81%
    05:00 -1°C° 0 mm 2 mps 741 mmHg 81%
    06:00 -1°C° 0 mm 2 mps 741 mmHg 81%
    07:00 -1°C° 0 mm 2 mps 741 mmHg 81%
    08:00 +2°C° 0 mm 2 mps 740 mmHg 78%
    09:00 +5°C° 0 mm 1 mps 740 mmHg 75%
    10:00 +7°C° 0 mm 1 mps 740 mmHg 73%
    11:00 +8°C° 0 mm 1 mps 740 mmHg 71%
    12:00 +9°C° 0 mm 1 mps 740 mmHg 69%
    13:00 +9°C° 0 mm 1 mps 740 mmHg 67%
    14:00 +9°C° 0 mm 1 mps 739 mmHg 70%
    15:00 +8°C° 0 mm 1 mps 739 mmHg 74%
    16:00 +7°C° 0 mm 1 mps 739 mmHg 77%
    17:00 +6°C° 0 mm 1 mps 739 mmHg 78%
    18:00 +4°C° 0 mm 2 mps 739 mmHg 78%
    19:00 +3°C° 0 mm 2 mps 739 mmHg 79%
    20:00 +3°C° 0 mm 2 mps 739 mmHg 77%
    21:00 +3°C° 0 mm 2 mps 739 mmHg 75%
    22:00 +3°C° 0 mm 2 mps 739 mmHg 73%
    23:00 +3°C° 0 mm 2 mps 739 mmHg 73%

    Tomorrow, 18 January, Friday

    Time Temperature Precipitation Wind Pressure Humidity
    00:00 +3°C° 0 mm 2 mps 739 mmHg 72%
    01:00 +3°C° 0 mm 2 mps 738 mmHg 72%
    02:00 +4°C° 0 mm 2 mps 738 mmHg 74%
    03:00 +5°C° 0 mm 2 mps 738 mmHg 75%
    04:00 +5°C° 0 mm 2 mps 738 mmHg 77%
    05:00 +6°C° 0 mm 2 mps 738 mmHg 78%
    06:00 +6°C° 0 mm 2 mps 737 mmHg 80%
    07:00 +6°C° 0 mm 2 mps 737 mmHg 81%
    08:00 +7°C° 0 mm 2 mps 737 mmHg 81%
    09:00 +7°C° 0 mm 2 mps 737 mmHg 81%
    10:00 +8°C° 0 mm 2 mps 737 mmHg 81%
    11:00 +8°C° 0.1 mm 2 mps 737 mmHg 82%
    12:00 +8°C° 0.1 mm 2 mps 736 mmHg 83%
    13:00 +8°C° 0.1 mm 2 mps 736 mmHg 83%
    14:00 +8°C° 0 mm 2 mps 736 mmHg 83%
    15:00 +8°C° 0 mm 2 mps 736 mmHg 84%
    16:00 +8°C° 0 mm 2 mps 736 mmHg 84%
    17:00 +7°C° 0 mm 2 mps 736 mmHg 84%
    18:00 +6°C° 0 mm 2 mps 736 mmHg 84%
    19:00 +5°C° 0 mm 3 mps 736 mmHg 84%
    20:00 +6°C° 0.2 mm 2 mps 736 mmHg 84%
    21:00 +6°C° 0.2 mm 2 mps 737 mmHg 83%
    22:00 +6°C° 0.2 mm 2 mps 737 mmHg 83%
    23:00 +6°C° 0.2 mm 2 mps 737 mmHg 83%

    Day after tomorrow, 19 January, Saturday

    Time Temperature Precipitation Wind Pressure Humidity
    00:00 +6°C° 0.2 mm 2 mps 737 mmHg 84%
    01:00 +6°C° 0.2 mm 2 mps 737 mmHg 84%
    02:00 +6°C° 0.2 mm 2 mps 737 mmHg 84%
    03:00 +6°C° 0.2 mm 2 mps 737 mmHg 84%
    04:00 +6°C° 0.2 mm 2 mps 736 mmHg 84%
    05:00 +6°C° 0.1 mm 2 mps 736 mmHg 83%
    06:00 +6°C° 0.1 mm 2 mps 736 mmHg 83%
    07:00 +6°C° 0.1 mm 2 mps 737 mmHg 82%
    08:00 +7°C° 0 mm 2 mps 737 mmHg 80%
    09:00 +8°C° 0 mm 2 mps 737 mmHg 77%
    10:00 +9°C° 0 mm 2 mps 737 mmHg 74%
    11:00 +11°C° 0 mm 1 mps 737 mmHg 71%
    12:00 +12°C° 0 mm 1 mps 736 mmHg 68%
    13:00 +13°C° 0 mm 1 mps 736 mmHg 66%
    14:00 +12°C° 0 mm 1 mps 736 mmHg 70%
    15:00 +11°C° 0 mm 1 mps 735 mmHg 74%
    16:00 +10°C° 0 mm 1 mps 735 mmHg 78%
    17:00 +8°C° 0 mm 2 mps 735 mmHg 79%
    18:00 +7°C° 0 mm 2 mps 735 mmHg 80%
    19:00 +6°C° 0 mm 2 mps 735 mmHg 81%
    20:00 +6°C° 0 mm 2 mps 735 mmHg 80%
    21:00 +6°C° 0 mm 2 mps 736 mmHg 79%
    22:00 +6°C° 0 mm 2 mps 736 mmHg 78%
    23:00 +6°C° 0.3 mm 2 mps 735 mmHg 78%

    20 January, Sunday

    Time Temperature Precipitation Wind Pressure Humidity
    00:00 +6°C° 0.3 mm 2 mps 735 mmHg 79%
    01:00 +6°C° 0.3 mm 2 mps 735 mmHg 80%
    02:00 +6°C° 1 mm 2 mps 735 mmHg 82%
    03:00 +6°C° 1 mm 2 mps 735 mmHg 84%
    04:00 +6°C° 1 mm 2 mps 735 mmHg 87%
    05:00 +6°C° 0.3 mm 2 mps 735 mmHg 86%
    06:00 +6°C° 0.3 mm 2 mps 735 mmHg 86%
    07:00 +6°C° 0.3 mm 2 mps 735 mmHg 86%
    08:00 +7°C° 0.6 mm 2 mps 735 mmHg 87%
    09:00 +7°C° 0.6 mm 2 mps 735 mmHg 88%
    10:00 +7°C° 0.6 mm 2 mps 736 mmHg 89%
    11:00 +8°C° 0.4 mm 2 mps 735 mmHg 87%
    12:00 +8°C° 0.4 mm 2 mps 735 mmHg 84%
    13:00 +9°C° 0.4 mm 2 mps 735 mmHg 82%
    14:00 +9°C° 0.1 mm 2 mps 735 mmHg 82%
    15:00 +9°C° 0.1 mm 1 mps 735 mmHg 82%
    16:00 +8°C° 0.1 mm 0 mps 735 mmHg 82%
    17:00 +8°C° 0.1 mm 1 mps 736 mmHg 84%
    18:00 +8°C° 0.1 mm 1 mps 736 mmHg 86%
    19:00 +6°C° 0.1 mm 2 mps 736 mmHg 88%
    20:00 +6°C° 0.2 mm 2 mps 737 mmHg 88%
    21:00 +6°C° 0.2 mm 2 mps 737 mmHg 88%
    22:00 +6°C° 0.2 mm 2 mps 737 mmHg 87%
    23:00 +6°C° 0.4 mm 2 mps 737 mmHg 87%

    21 January, Monday

    Time Temperature Precipitation Wind Pressure Humidity
    00:00 +6°C° 0.4 mm 2 mps 737 mmHg 87%
    01:00 +6°C° 0.4 mm 2 mps 737 mmHg 87%
    02:00 +6°C° 0.3 mm 2 mps 737 mmHg 87%
    03:00 +6°C° 0.3 mm 2 mps 737 mmHg 87%
    04:00 +6°C° 0.3 mm 2 mps 737 mmHg 87%
    05:00 +5°C° 0.2 mm 2 mps 737 mmHg 86%
    06:00 +5°C° 0.2 mm 2 mps 737 mmHg 86%
    07:00 +5°C° 0.2 mm 2 mps 737 mmHg 85%
    08:00 +6°C° 0.1 mm 2 mps 737 mmHg 82%
    09:00 +7°C° 0.1 mm 2 mps 738 mmHg 79%
    10:00 +9°C° 0.1 mm 1 mps 738 mmHg 76%
    11:00 +9°C° 0.3 mm 1 mps 737 mmHg 77%
    12:00 +9°C° 0.3 mm 1 mps 737 mmHg 79%
    13:00 +9°C° 0.3 mm 1 mps 737 mmHg 80%
    14:00 +9°C° 0.3 mm 1 mps 736 mmHg 80%
    15:00 +8°C° 0.3 mm 2 mps 736 mmHg 80%
    16:00 +7°C° 0.3 mm 2 mps 736 mmHg 81%
    17:00 +7°C° 0.1 mm 2 mps 736 mmHg 81%
    18:00 +6°C° 0.1 mm 2 mps 735 mmHg 81%
    19:00 +6°C° 0.1 mm 2 mps 735 mmHg 81%
    20:00 +6°C° 0.1 mm 2 mps 735 mmHg 80%
    21:00 +6°C° 0.1 mm 2 mps 735 mmHg 80%
    22:00 +6°C° 0.1 mm 2 mps 735 mmHg 79%
    23:00 +6°C° 0.4 mm 2 mps 734 mmHg 80%

    22 January, Tuesday

    Time Temperature Precipitation Wind Pressure Humidity
    00:00 +6°C° 0.4 mm 2 mps 734 mmHg 80%
    01:00 +6°C° 0.4 mm 2 mps 733 mmHg 81%
    02:00 +4°C° 1.4 mm 3 mps 732 mmHg 83%
    03:00 +4°C° 1.4 mm 3 mps 731 mmHg 84%
    04:00 +4°C° 1.4 mm 3 mps 731 mmHg 86%
    05:00 +4°C° 1.8 mm 3 mps 730 mmHg 85%
    06:00 +4°C° 1.8 mm 4 mps 730 mmHg 85%
    07:00 +4°C° 1.8 mm 4 mps 729 mmHg 85%
    08:00 +5°C° 1 mm 4 mps 729 mmHg 85%
    09:00 +6°C° 1 mm 4 mps 729 mmHg 85%
    10:00 +6°C° 1 mm 5 mps 729 mmHg 85%
    11:00 +6°C° 0.8 mm 5 mps 729 mmHg 85%
    12:00 +7°C° 0.8 mm 5 mps 728 mmHg 86%
    13:00 +7°C° 0.8 mm 5 mps 728 mmHg 86%
    14:00 +7°C° 1.2 mm 4 mps 728 mmHg 89%
    15:00 +8°C° 1.2 mm 3 mps 728 mmHg 91%
    16:00 +8°C° 1.2 mm 3 mps 728 mmHg 93%
    17:00 +8°C° 0.5 mm 2 mps 728 mmHg 94%
    18:00 +8°C° 0.5 mm 2 mps 728 mmHg 94%
    19:00 +8°C° 0.5 mm 2 mps 728 mmHg 94%
    20:00 +7°C° 0.5 mm 2 mps 728 mmHg 95%
    21:00 +7°C° 0.5 mm 2 mps 728 mmHg 95%
    22:00 +7°C° 0.5 mm 2 mps 729 mmHg 95%
    23:00 +8°C° 0.5 mm 1 mps 729 mmHg 95%
    Show more